Location: Jerusalem
(31.7670°N, 35.2330°E)
Time: 19:42:52
(UTC+02:00)

ISS - Visible Passes

Search period start: 19 November 2017 00:00
Search period end: 29 November 2017 00:00
Orbit: 402 x 407 km, 51.6° (Epoch: 20 November)

Date Brightness Start Highest point End Pass type
(mag) Time Alt. Az. Time Alt. Az. Time Alt. Az.
19 Nov -1.5 04:08:59 23° ENE 04:08:59 23° ENE 04:10:55 10° E visible
19 Nov -2.1 05:42:02 10° W 05:44:27 19° SW 05:46:52 10° S visible
20 Nov -3.5 04:52:03 42° WSW 04:52:19 43° SW 04:55:25 10° SSE visible
21 Nov -1.0 04:02:28 17° SE 04:02:28 17° SE 04:03:21 10° SE visible
22 Nov -1.2 04:45:39 11° SSW 04:45:39 11° SSW 04:45:56 10° SSW visible
23 Nov -0.8 18:48:25 10° SW 18:48:51 13° SW 18:48:51 13° SW visible
24 Nov -2.8 17:56:29 10° SSW 17:59:13 31° SE 17:59:13 31° SE visible
25 Nov -1.7 17:05:21 10° SSE 17:07:16 15° SE 17:09:11 10° E visible
25 Nov -1.5 18:40:28 10° WSW 18:42:11 24° W 18:42:11 24° W visible
26 Nov -3.8 17:47:51 10° SW 17:51:06 78° NW 17:52:21 35° NE visible
27 Nov -1.2 18:33:24 10° WNW 18:35:06 15° NW 18:35:06 15° NW visible
28 Nov -2.1 17:40:02 10° W 17:42:53 27° NW 17:45:05 14° NNE visible
